Location: Bonac
(42.8765°N, 0.9753°E)
Time: 06:00:03
(UTC+00:00)

BREEZE-M DEB (TANK) - Pass Details

Date: 12 January 2026
Orbit: 337 x 14348 km, 49.5° (Epoch: 10 February)

Event Time Altitude Azimuth Distance (km) Brightness Sun altitude
Rises 18:05:44 0° 297° (WNW) 2,497 7.0 -14.7°
Reaches altitude 10° 18:08:05 10° 311° (NW) 1,341 5.2 -15.1°
Maximum altitude 18:10:15 26° 15° (NNE) 707 3.1 -15.5°
Enters shadow 18:10:15 26° 15° (NNE) 708 3.1 -15.5°
